Flag for Marshall Islands Weather past 2 weeks in Majuro, Marshall Islands

Now
83 °F

Partly cloudy.


Feels Like: 91 °F
Forecast: 79 / 86 °F
Wind: 5 mph from North

Location: Majuro Atoll

Current Time: Sep 20, 2014 at 2:44:55 AM

Latest Report: Sep 20, 2014 at 1:50 AM


Visibility: 15 mi

Pressure: 29.78 "Hg

Humidity: 81%

Dew point: 76 °F

Location of MajuroLocation

Historic Weather in Majuro — Graph

°F

Majuro temperature yesterday

Maximum temperature yesterday: 88 °F (at 12:52 PM)
Minimum temperature yesterday: 80 °F (at 4:56 AM)
Average temperature yesterday: 85 °F

Past Weeks' High & Low Weather Summary

 TemperatureHumidityPressure
High89 °F (Sep 15, 12:51 PM)95% (Sep 7, 7:55 PM)29.90 "Hg (Sep 7, 7:55 PM)
Low77 °F (Sep 7, 7:55 PM)66% (Sep 10, 2:55 PM)29.71 "Hg (Sep 5, 2:50 PM)
Average84 °F79%29.81 "Hg
* Reported Sep 5 1:55 AM — Sep 20 1:50 AM, Majuro, Weather by CustomWeather, © 2014

Note: Actual official high and low records may vary slightly from our data, if they occured in-between our weather recording intervals... More about our weather records

Advertising

Majuro weather history for previous 24 hours

 ConditionsComfort  
Time TempWeatherWind HumidityBarometerVisibility
1:50 AM
Sep 20
83 °FPartly cloudy.5 mph81%29.78 "Hg15 mi
12:55 AM83 °FPartly cloudy.3 mph80%29.79 "Hg15 mi
11:54 PM
Sep 19
83 °FPartly cloudy.No wind78%29.80 "Hg15 mi
10:53 PM84 °FPartly cloudy.3 mph77%29.80 "Hg15 mi
9:54 PM85 °FPartly cloudy.5 mph77%29.80 "Hg15 mi
8:53 PM85 °FPartly cloudy.6 mph76%29.78 "Hg15 mi
7:51 PM85 °FPartly cloudy.7 mph76%29.78 "Hg15 mi
6:52 PM85 °FBroken clouds.3 mph78%29.77 "Hg15 mi
5:54 PM85 °FBroken clouds.5 mph77%29.75 "Hg15 mi
4:51 PM87 °FBroken clouds.7 mph75%29.74 "Hg15 mi
3:52 PM88 °FBroken clouds.9 mph74%29.73 "Hg15 mi
2:51 PM88 °FPartly sunny.7 mph73%29.74 "Hg20 mi
1:53 PM88 °FPassing clouds.6 mph72%29.75 "Hg20 mi
12:52 PM88 °FPassing clouds.7 mph73%29.78 "Hg20 mi
11:52 AM87 °FScattered clouds.3 mph74%29.80 "Hg20 mi
10:50 AM88 °FScattered clouds.7 mph74%29.83 "Hg20 mi
9:53 AM87 °FPassing clouds.9 mph72%29.83 "Hg20 mi
8:53 AM85 °FScattered clouds.No wind76%29.83 "Hg20 mi
7:51 AM84 °FBroken clouds.7 mph81%29.82 "Hg15 mi
6:50 AM80 °FMostly cloudy.7 mph87%29.80 "Hg15 mi
5:56 AM81 °FMostly cloudy.10 mph87%29.79 "Hg15 mi
4:56 AM80 °FMostly cloudy.No wind89%29.78 "Hg15 mi
3:55 AM82 °FMostly cloudy.9 mph86%29.78 "Hg15 mi
2:56 AM83 °FMostly cloudy.No wind80%29.78 "Hg15 mi
Weather by CustomWeather, © 2014

See weather overviewHow to use our weather pages